Location: Jackson Park
(37.2862°N, 79.9123°W)
Time: 11:35:33
(UTC+00:00)

S-56A Canister/Altair - Pass Details

Date: 11 May 2026
Orbit: 632 x 2484 km, 38.9° (Epoch: 9 June)

Event Time Altitude Azimuth Distance (km) Brightness Sun altitude
Rises 08:47:26 0° 283° (WNW) 3,643 - -15.7°
Reaches altitude 10° 08:49:52 10° 275° (W) 2,892 - -15.3°
Exits shadow 08:50:04 11° 274° (W) 2,833 10.0 -15.3°
Maximum altitude 08:56:25 39° 209° (SSW) 1,962 9.1 -14.3°
Drops below altitude 10° 09:05:54 10° 146° (SE) 4,189 11.3 -12.7°
Sets 09:10:11 0° 139° (SE) 5,470 12.0 -12.0°
